| time (UTC) | temp C | wind direction | speed KPH | gust KPH | rain 1hr cm | rain 24hr cm | rain mn cm | humidity % | barometer mb |
| 20260505040505 | 13 | 130 | 14.5 | 37.0 | 0.28 | 0.41 | 0.41 | 89 | 1015.9 |
| 20260505040008 | 12 | 130 | 19.3 | 38.6 | 0.28 | 0.41 | 0.41 | 89 | 1015.9 |
| 20260505035506 | 13 | 121 | 16.1 | 38.6 | 0.28 | 0.38 | 0.38 | 89 | 1016.0 |
| 20260505034505 | 13 | 102 | 4.8 | 29.0 | 0.25 | 0.33 | 0.33 | 89 | 1016.0 |
| 20260505034005 | 13 | 104 | 17.7 | 33.8 | 0.23 | 0.28 | 0.28 | 88 | 1016.0 |
| 20260505033505 | 13 | 124 | 14.5 | 27.4 | 0.18 | 0.23 | 0.23 | 88 | 1016.1 |
| 20260505032005 | 13 | 92 | 4.8 | 12.9 | 0.20 | 0.20 | 0.20 | 86 | 1016.2 |
| 20260505031006 | 13 | 99 | 1.6 | 12.9 | 0.15 | 0.15 | 0.15 | 86 | 1016.1 |
| 20260505030505 | 13 | 111 | 3.2 | 14.5 | 0.13 | 0.13 | 0.13 | 85 | 1016.1 |
| 20260505025506 | 13 | 133 | 1.6 | 12.9 | 0.10 | 0.10 | 0.10 | 84 | 1016.1 |
| 20260505025005 | 13 | 124 | 3.2 | 11.3 | 0.08 | 0.08 | 0.08 | 83 | 1016.1 |
| 20260505024505 | 13 | 124 | 1.6 | 14.5 | 0.08 | 0.08 | 0.08 | 82 | 1016.2 |
| 20260505024006 | 13 | 123 | 4.8 | 19.3 | 0.05 | 0.05 | 0.05 | 80 | 1016.2 |
| 20260505022506 | 14 | 95 | 4.8 | 16.1 | 0.03 | 0.03 | 0.03 | 79 | 1016.2 |
| 20260505021504 | 14 | 115 | 14.5 | 27.4 | 0.00 | 0.00 | 0.00 | 76 | 1016.2 |
| 20260505020505 | 15 | 136 | 1.6 | 22.5 | 0.00 | 0.00 | 0.00 | 71 | 1016.3 |
| 20260505015004 | 15 | 134 | 1.6 | 14.5 | 0.00 | 0.00 | 0.00 | 69 | 1016.4 |
| 20260505014504 | 15 | 128 | 1.6 | 14.5 | 0.00 | 0.00 | 0.00 | 70 | 1016.5 |
| 20260505012505 | 14 | 147 | 8.0 | 19.3 | 0.00 | 0.00 | 0.00 | 75 | 1016.6 |
| 20260505011504 | 15 | 181 | 11.3 | 25.7 | 0.00 | 0.00 | 0.00 | 71 | 1016.6 |
| 20260505010505 | 15 | 160 | 3.2 | 9.7 | 0.00 | 0.00 | 0.00 | 66 | 1016.6 |
| 20260505005004 | 15 | 153 | 1.6 | 9.7 | 0.00 | 0.00 | 0.00 | 68 | 1016.6 |
| 20260505004005 | 15 | 76 | 0.0 | 8.0 | 0.00 | 0.00 | 0.00 | 68 | 1016.6 |
| 20260505002005 | 16 | 65 | 0.0 | 0.0 | 0.00 | 0.00 | 0.00 | 66 | 1017.0 |
| 20260505001505 | 16 | 65 | 0.0 | 8.0 | 0.00 | 0.00 | 0.00 | 65 | 1017.0 |
| 20260505000504 | 16 | 65 | 0.0 | 4.8 | 0.00 | 0.00 | 0.00 | 69 | 1017.1 |
| 20260505000007 | 16 | 65 | 0.0 | 0.0 | 0.00 | 0.00 | 0.00 | 69 | 1017.2 |
| 20260504235505 | 16 | 65 | 1.6 | 12.9 | 0.00 | 0.00 | 0.00 | 68 | 1017.1 |
| 20260504234505 | 16 | 53 | 4.8 | 14.5 | 0.00 | 0.00 | 0.00 | 71 | 1017.2 |
| 20260504233008 | 16 | 126 | 3.2 | 11.3 | 0.00 | 0.00 | 0.00 | 73 | 1017.6 |
| 20260504231504 | 16 | 144 | 1.6 | 12.9 | 0.00 | 0.00 | 0.00 | 74 | 1017.7 |
| 20260504230504 | 16 | 143 | 3.2 | 14.5 | 0.00 | 0.00 | 0.00 | 75 | 1017.7 |
| 20260504225004 | 16 | 120 | 1.6 | 11.3 | 0.00 | 0.00 | 0.00 | 76 | 1017.8 |
| 20260504224505 | 16 | 134 | 0.0 | 8.0 | 0.00 | 0.00 | 0.00 | 76 | 1017.8 |
| 20260504224005 | 16 | 134 | 1.6 | 14.5 | 0.00 | 0.00 | 0.00 | 76 | 1017.8 |
| 20260504223007 | 16 | 113 | 8.0 | 14.5 | 0.00 | 0.00 | 0.00 | 77 | 1017.9 |
| 20260504221005 | 16 | 137 | 6.4 | 19.3 | 0.00 | 0.00 | 0.00 | 78 | 1017.9 |
| 20260504220505 | 16 | 134 | 3.2 | 12.9 | 0.00 | 0.00 | 0.00 | 78 | 1017.9 |
| 20260504220007 | 16 | 106 | 3.2 | 9.7 | 0.00 | 0.00 | 0.00 | 78 | 1017.9 |
| 20260504215505 | 16 | 105 | 1.6 | 11.3 | 0.00 | 0.00 | 0.00 | 78 | 1018.0 |
| 20260504214005 | 16 | 95 | 1.6 | 4.8 | 0.00 | 0.00 | 0.00 | 78 | 1018.0 |
| 20260504212505 | 16 | 126 | 1.6 | 4.8 | 0.00 | 0.00 | 0.00 | 79 | 1018.1 |
| 20260504212004 | 16 | 125 | 3.2 | 12.9 | 0.00 | 0.00 | 0.00 | 79 | 1018.1 |
| 20260504204504 | 16 | 124 | 4.8 | 12.9 | 0.00 | 0.00 | 0.00 | 78 | 1018.3 |
| 20260504203504 | 16 | 142 | 6.4 | 19.3 | 0.00 | 0.00 | 0.00 | 78 | 1018.3 |
| 20260504203004 | 16 | 151 | 11.3 | 22.5 | 0.00 | 0.00 | 0.00 | 78 | 1018.3 |
| 20260504201504 | 16 | 147 | 4.8 | 14.5 | 0.00 | 0.00 | 0.00 | 78 | 1018.3 |
| 20260504200504 | 16 | 154 | 3.2 | 19.3 | 0.00 | 0.00 | 0.00 | 77 | 1018.2 |
| 20260504200004 | 16 | 158 | 4.8 | 19.3 | 0.00 | 0.00 | 0.00 | 77 | 1018.1 |
| 20260504194505 | 16 | 160 | 4.8 | 14.5 | 0.00 | 0.00 | 0.00 | 78 | 1018.0 |
| 20260504192005 | 16 | 150 | 4.8 | 14.5 | 0.00 | 0.00 | 0.00 | 77 | 1018.0 |
| 20260504190008 | 16 | 140 | 4.8 | 14.5 | 0.00 | 0.00 | 0.00 | 78 | 1018.0 |
| 20260504185505 | 16 | 161 | 0.0 | 4.8 | 0.00 | 0.00 | 0.00 | 78 | 1017.9 |
| 20260504185005 | 16 | 155 | 1.6 | 4.8 | 0.00 | 0.00 | 0.00 | 78 | 1017.9 |
| 20260504184505 | 16 | 149 | 1.6 | 8.0 | 0.00 | 0.00 | 0.00 | 78 | 1018.0 |
| 20260504183505 | 16 | 143 | 0.0 | 12.9 | 0.00 | 0.00 | 0.00 | 78 | 1018.0 |
| 20260504183008 | 17 | 168 | 1.6 | 9.7 | 0.00 | 0.00 | 0.00 | 78 | 1017.9 |
| 20260504180505 | 17 | 182 | 8.0 | 19.3 | 0.00 | 0.00 | 0.00 | 76 | 1017.8 |
| 20260504180008 | 17 | 151 | 1.6 | 12.9 | 0.00 | 0.00 | 0.00 | 76 | 1017.9 |
| 20260504174504 | 17 | 155 | 6.4 | 20.9 | 0.00 | 0.00 | 0.00 | 75 | 1017.9 |
| 20260504174006 | 17 | 162 | 1.6 | 19.3 | 0.00 | 0.00 | 0.00 | 75 | 1017.8 |
| 20260504173505 | 17 | 178 | 4.8 | 25.7 | 0.00 | 0.00 | 0.00 | 74 | 1017.8 |
| 20260504172005 | 17 | 171 | 14.5 | 45.1 | 0.00 | 0.00 | 0.00 | 72 | 1017.8 |
| 20260504171505 | 17 | 153 | 3.2 | 25.7 | 0.00 | 0.00 | 0.00 | 71 | 1017.8 |
| 20260504151005 | 17 | 167 | 11.3 | 32.2 | 0.00 | 0.00 | 0.00 | 70 | 1018.1 |
| 20260504141005 | 18 | 182 | 16.1 | 38.6 | 0.00 | 0.00 | 0.00 | 66 | 1018.2 |
| 20260504130504 | 18 | 186 | 16.1 | 46.7 | 0.00 | 0.00 | 0.00 | 61 | 1018.8 |
| 20260504081006 | 18 | 139 | 9.7 | 22.5 | 0.00 | 0.00 | 0.00 | 64 | 1020.0 |
| 20260504080505 | 18 | 127 | 1.6 | 16.1 | 0.00 | 0.00 | 0.00 | 64 | 1020.0 |
| 20260504050505 | 12 | 49 | 4.8 | 11.3 | 0.00 | 0.00 | 0.00 | 84 | 1018.9 |